[[{"header":{"parameterUnit":"m.s-1","parameterCategory":1,"la1":30.2991,"la2":30.254,"lo1":-89.0895,"lo2":-89.0444,"dy":0.0017,"dx":0.0017,"nx":28,"ny":28,"refTime":"2025-09-10T21:00:00:Z","depth":0,"parameterNumber":2,"parameterNumberName":"U-component_of_WINDS"},"data":[0,0,0,0,0,0,0,0,0,0,0,0,0,0,0,0,0,0,0,0,0,0,0,0,0,0,0,0,0,0,0,0,0,0,0,0,0,0,0,0,0,0,0,0,0,0,0,0,0,0,0,0,0,0,0,0,0,0,1.4313,1.4314,0,1.4392,1.4393,1.4394,1.4432,1.4432,1.4432,1.4432,1.451,1.4512,1.4514,0,0,0,0,0,0,0,0,0,0,0,0,0,1.4191,1.4193,1.4313,1.4314,1.4315,1.4392,1.4393,1.4394,1.4432,1.4432,1.4432,1.4432,1.4509,1.4512,1.4514,0,0,0,0,0,0,0,0,0,0,0,0,0,1.4254,1.4193,1.4312,1.4343,1.4346,1.4392,1.4393,1.4394,1.4432,1.4432,1.4432,1.4432,1.4509,1.4512,1.4515,1.4535,0,0,1.4524,1.4526,0,0,0,0,0,0,0,0,1.425,1.4258,1.4337,1.4341,1.4345,1.4402,1.4379,1.4441,1.4432,1.4399,1.4432,1.4432,1.4474,1.448,1.4495,1.4538,1.4542,1.4525,1.4527,1.4528,1.4529,0,0,0,0,0,0,0,1.4246,1.4255,1.4344,1.4339,1.4343,1.4352,1.4361,1.4391,1.4436,1.4402,1.4405,1.4414,1.4476,1.4492,1.4497,1.4543,1.4525,1.4527,1.4529,1.453,1.4607,1.4607,0,0,0,0,0,0,1.4237,1.4251,1.4342,1.4346,1.4297,1.4354,1.4364,1.4384,1.4436,1.4444,1.4414,1.4416,1.4486,1.4493,1.45,1.4527,1.4528,1.4531,1.4533,1.4607,1.4607,1.4607,0,0,0,0,0,0,1.4234,1.4245,1.4338,1.43,1.4312,1.4356,1.4378,1.4385,1.4401,1.4445,1.4453,1.4422,1.4487,1.4495,1.4526,1.453,1.4532,1.4535,1.4607,1.4607,1.4607,1.4581,0,0,0,0,0,0,1.4231,1.4244,1.4252,1.43,1.4314,1.4364,1.4378,1.4387,1.4407,1.441,1.4454,1.4462,1.4487,1.4521,1.4529,1.4535,1.4538,1.4607,1.4607,1.4607,1.4582,1.4581,1.4579,0,0,0,0,0,1.4226,1.4241,1.4253,1.4263,1.4326,1.4364,1.4372,1.4403,1.4407,1.4416,1.4444,1.446,1.4528,1.4524,1.4533,1.454,1.4606,1.4607,1.4607,1.4582,1.4581,1.4579,0,0,0,0,0,0,1.4192,1.4248,1.4261,1.4292,1.4323,1.4371,1.4383,1.44,1.4429,1.4431,1.4466,1.4475,1.4503,1.4524,1.4518,1.4562,1.4569,1.4571,1.4547,1.4546,1.4545,1.4539,1.454,0,0,0,0,0,1.4188,1.4215,1.4262,1.4285,1.43,1.4339,1.4356,1.4377,1.441,1.4423,1.4453,1.4484,1.4512,1.453,1.4559,1.4585,1.4595,1.4594,1.4593,1.4592,1.4593,1.4609,1.4609,1.4608,1.4608,1.4608,0,0,1.4181,1.4214,1.4229,1.4279,1.4306,1.4332,1.4349,1.4376,1.4396,1.4427,1.4458,1.4481,1.4517,1.4546,1.456,1.4565,1.4595,1.4592,1.4591,1.4593,1.4609,1.4609,1.4609,1.4608,1.4608,1.4608,0,0,1.418,1.4209,1.4231,1.4257,1.4298,1.4323,1.4328,1.4373,1.439,1.4422,1.4446,1.4469,1.4517,1.4542,1.4561,1.457,1.4586,1.4578,1.4572,1.4587,1.4587,1.4587,1.459,1.4591,1.458,1.458,1.458,0,1.4165,1.4207,1.424,1.4266,1.4287,1.4317,1.4339,1.4363,1.441,1.4423,1.4428,1.4489,1.4516,1.4551,1.4553,1.4568,1.4574,1.4574,1.4584,1.4585,1.4585,1.4589,1.459,1.4578,1.4579,1.4579,1.4579,0,1.4187,1.4215,1.4228,1.4274,1.4296,1.432,1.4356,1.4374,1.4393,1.4417,1.4449,1.4483,1.4518,1.4528,1.4546,1.4566,1.4567,1.4578,1.4585,1.4584,1.4588,1.4589,1.4577,1.4577,1.4577,1.4578,0,0,1.4167,1.4231,1.4235,1.4257,1.4303,1.4325,1.435,1.4386,1.4402,1.4433,1.4454,1.4494,1.4504,1.4526,1.4547,1.456,1.4565,1.4569,1.457,1.4567,1.4589,1.4581,1.4582,1.4576,1.4576,1.4577,1.4586,0,1.4173,1.4221,1.4251,1.4286,1.4313,1.4341,1.4363,1.4393,1.4417,1.4442,1.4468,1.4496,1.4507,1.452,1.4534,1.4561,1.457,1.4561,1.4596,1.4597,1.4586,1.4584,1.4576,1.4583,1.4588,1.4588,1.4588,0,1.4187,1.4219,1.4257,1.4301,1.4313,1.4332,1.4368,1.4391,1.4426,1.4442,1.4466,1.4488,1.4515,1.452,1.4557,1.455,1.4566,1.4582,1.4583,1.4587,1.4592,1.4589,1.4586,1.4588,1.4591,1.4591,1.459,0,1.4169,1.4221,1.4251,1.4268,1.432,1.4333,1.4355,1.4389,1.4409,1.444,1.4453,1.4486,1.4504,1.4528,1.4558,1.4559,1.4592,1.4599,1.4605,1.4605,1.4611,1.4611,1.4612,1.4621,1.4621,1.4621,1.4621,0,1.4173,1.4195,1.4244,1.4262,1.4287,1.4321,1.4345,1.4369,1.44,1.4423,1.4449,1.4469,1.4507,1.4532,1.4554,1.4582,1.459,1.4603,1.4609,1.4601,1.4599,1.4612,1.4612,1.4621,1.4621,1.4621,1.4621,0,1.4158,1.4191,1.4225,1.4272,1.4284,1.4301,1.434,1.4358,1.4383,1.4412,1.442,1.4459,1.449,1.4521,1.4563,1.4578,1.4605,1.4613,1.4593,1.4597,1.4601,1.46,1.461,1.4614,1.462,1.462,1.462,0,1.4158,1.4176,1.4225,1.4243,1.4264,1.4292,1.4313,1.4346,1.4366,1.4408,1.4421,1.4454,1.4482,1.4529,1.4561,1.4592,1.4601,1.4603,1.4606,1.4598,1.4602,1.4601,1.4602,1.4602,1.4601,1.4601,1.4601,0,1.4156,1.4171,1.4201,1.4236,1.426,1.4289,1.4318,1.4331,1.437,1.4392,1.4424,1.4446,1.4488,1.4521,1.4556,1.4578,1.4596,1.46,1.4603,1.4595,1.4583,1.459,1.459,1.4599,1.4599,1.46,1.46,1.46,1.4149,1.4166,1.4203,1.4235,1.4261,1.4288,1.4308,1.4335,1.4363,1.4401,1.4419,1.4451,1.4485,1.4535,1.4556,1.4582,1.4587,1.4591,1.4592,1.4593,1.4591,1.4579,1.4588,1.4588,1.4588,1.4588,1.4589,0,1.4147,1.4173,1.4202,1.4243,1.4268,1.4283,1.4317,1.4336,1.4365,1.4396,1.4423,1.446,1.4491,1.4525,1.4559,1.4572,1.4581,1.458,1.4579,1.4584,1.4585,1.4579,1.4572,1.4572,1.4572,1.4572,1.4572,1.4572,1.415,1.418,1.42,1.4243,1.4268,1.4301,1.4319,1.4344,1.4368,1.4409,1.4436,1.4458,1.449,1.4526,1.4555,1.4564,1.4575,1.4571,1.4583,1.4583,1.4584,1.4585,1.458,1.4573,1.4573,1.458,1.458,1.458]},{"header":{"parameterUnit":"m.s-1","parameterCategory":1,"la1":30.2991,"la2":30.254,"lo1":-89.0895,"lo2":-89.0444,"dy":0.0017,"dx":0.0017,"nx":28,"ny":28,"refTime":"2025-09-10T21:00:00:Z","depth":0,"parameterNumber":3,"parameterNumberName":"V-component_of_WINDS"},"data":[0,0,0,0,0,0,0,0,0,0,0,0,0,0,0,0,0,0,0,0,0,0,0,0,0,0,0,0,0,0,0,0,0,0,0,0,0,0,0,0,0,0,0,0,0,0,0,0,0,0,0,0,0,0,0,0,0,0,0.2533,0.2532,0,0.241,0.2408,0.2407,0.2344,0.2344,0.2344,0.2344,0.2214,0.2211,0.2208,0,0,0,0,0,0,0,0,0,0,0,0,0,0.2713,0.271,0.2533,0.2532,0.253,0.241,0.2408,0.2406,0.2344,0.2344,0.2344,0.2344,0.2215,0.2211,0.2207,0,0,0,0,0,0,0,0,0,0,0,0,0,0.2616,0.2709,0.2533,0.2484,0.2479,0.241,0.2408,0.2406,0.2344,0.2344,0.2344,0.2343,0.2217,0.2212,0.2207,0.2177,0,0,0.2191,0.2189,0,0,0,0,0,0,0,0,0.2622,0.261,0.2493,0.2488,0.2481,0.2392,0.2424,0.2329,0.2344,0.2395,0.2344,0.2343,0.2273,0.2263,0.224,0.217,0.2165,0.2191,0.2188,0.2185,0.2184,0,0,0,0,0,0,0,0.2629,0.2615,0.2484,0.2492,0.2484,0.2468,0.2454,0.2405,0.2336,0.239,0.2386,0.2372,0.227,0.2245,0.2237,0.2163,0.2191,0.2186,0.2183,0.2181,0.2061,0.2061,0,0,0,0,0,0,0.2644,0.2621,0.2488,0.248,0.2553,0.2465,0.2449,0.2421,0.2336,0.2323,0.2372,0.2369,0.2254,0.2243,0.2232,0.219,0.2185,0.2181,0.2178,0.2061,0.2061,0.2061,0,0,0,0,0,0,0.2648,0.2632,0.2493,0.2549,0.253,0.2462,0.243,0.2418,0.2394,0.2322,0.2309,0.236,0.2254,0.2239,0.2191,0.2185,0.2178,0.2174,0.2062,0.2061,0.2061,0.2108,0,0,0,0,0,0,0.2653,0.2634,0.2623,0.2549,0.2528,0.2455,0.243,0.2416,0.2385,0.2381,0.2308,0.2295,0.2253,0.2199,0.2186,0.2178,0.217,0.2062,0.2061,0.2061,0.2107,0.2109,0.2112,0,0,0,0,0,0.266,0.264,0.2622,0.2607,0.2512,0.2455,0.2442,0.2394,0.2385,0.2373,0.2327,0.2298,0.2188,0.2194,0.2179,0.217,0.2062,0.2062,0.2061,0.2105,0.2109,0.2112,0,0,0,0,0,0,0.2714,0.263,0.2609,0.2566,0.2518,0.2444,0.2427,0.2399,0.2352,0.235,0.2291,0.2275,0.2232,0.2196,0.2204,0.2136,0.2122,0.2119,0.2161,0.2163,0.2166,0.2175,0.2165,0,0,0,0,0,0.2721,0.2682,0.2611,0.2579,0.2556,0.2496,0.2469,0.2436,0.2384,0.2363,0.2314,0.2264,0.2218,0.2189,0.2143,0.2101,0.2084,0.2087,0.209,0.2093,0.209,0.2065,0.2065,0.206,0.206,0.206,0,0,0.2734,0.2684,0.2663,0.2589,0.2548,0.2508,0.2479,0.2439,0.2409,0.2357,0.2308,0.227,0.221,0.2165,0.2143,0.2134,0.2088,0.2092,0.2095,0.2091,0.2065,0.2065,0.2066,0.206,0.206,0.206,0,0,0.2739,0.2698,0.2666,0.2626,0.2565,0.2525,0.2518,0.2448,0.2421,0.2372,0.2332,0.2295,0.2217,0.2176,0.2145,0.2134,0.2105,0.2121,0.2134,0.211,0.2111,0.2111,0.2106,0.2105,0.2119,0.2119,0.2119,0,0.2764,0.2703,0.2654,0.2615,0.2584,0.2536,0.2504,0.2467,0.2393,0.2372,0.2364,0.2265,0.2221,0.2166,0.2163,0.214,0.2129,0.2129,0.2115,0.2114,0.2114,0.2108,0.2107,0.2121,0.2121,0.2121,0.212,0,0.2736,0.2695,0.2677,0.2608,0.2575,0.254,0.2484,0.2455,0.2425,0.2386,0.2336,0.2282,0.2224,0.2208,0.2178,0.2148,0.2144,0.2126,0.2111,0.2117,0.2111,0.2109,0.2124,0.2124,0.2123,0.2122,0,0,0.2771,0.2675,0.2669,0.2638,0.2567,0.2533,0.2496,0.244,0.2417,0.2368,0.2334,0.227,0.2252,0.2217,0.2182,0.2161,0.2155,0.2145,0.2143,0.2148,0.2118,0.2132,0.213,0.2136,0.2136,0.2135,0.2123,0,0.2765,0.2696,0.265,0.2599,0.256,0.2515,0.2482,0.2434,0.2397,0.2357,0.2315,0.227,0.2251,0.223,0.2207,0.2161,0.2148,0.2161,0.2103,0.2102,0.2119,0.2127,0.2141,0.2132,0.212,0.212,0.2119,0,0.2748,0.2702,0.2647,0.2581,0.2562,0.2534,0.2479,0.2442,0.2387,0.2361,0.2322,0.2287,0.2244,0.2233,0.2173,0.2183,0.2157,0.2131,0.2129,0.2121,0.2111,0.2119,0.2128,0.2126,0.2115,0.2116,0.2116,0,0.2778,0.2702,0.2659,0.2633,0.2555,0.2535,0.2502,0.2447,0.2416,0.2368,0.2347,0.2294,0.2265,0.2224,0.2175,0.2172,0.212,0.2105,0.2096,0.2097,0.2086,0.2087,0.2091,0.2071,0.2071,0.2071,0.2071,0,0.2776,0.2744,0.2671,0.2645,0.2608,0.2555,0.252,0.2482,0.2433,0.2398,0.2355,0.2323,0.2261,0.222,0.2182,0.2137,0.2125,0.2102,0.2092,0.2105,0.2108,0.2086,0.2085,0.207,0.2071,0.2071,0.2071,0,0.2803,0.2753,0.2703,0.2633,0.2615,0.259,0.253,0.2502,0.2462,0.2418,0.2405,0.2342,0.2293,0.224,0.2172,0.2146,0.2103,0.209,0.2122,0.2116,0.211,0.2111,0.2099,0.2094,0.2079,0.2079,0.2079,0,0.2804,0.2779,0.2706,0.268,0.2648,0.2606,0.2575,0.2522,0.2491,0.2426,0.2406,0.2354,0.2309,0.2231,0.2179,0.2127,0.2111,0.211,0.2103,0.2117,0.211,0.2112,0.2109,0.2113,0.2113,0.2113,0.2114,0,0.2812,0.2788,0.2745,0.2694,0.2658,0.2614,0.2569,0.255,0.2488,0.2455,0.2404,0.237,0.2301,0.2249,0.219,0.2154,0.2123,0.2117,0.2112,0.2125,0.2145,0.2133,0.2128,0.2117,0.2117,0.2116,0.2116,0.2116,0.2825,0.28,0.2745,0.2699,0.2659,0.2618,0.2589,0.2546,0.2503,0.2443,0.2415,0.2364,0.2309,0.2227,0.2192,0.2151,0.2142,0.2135,0.2133,0.2132,0.2135,0.2152,0.214,0.214,0.214,0.214,0.214,0,0.283,0.2792,0.275,0.2689,0.2652,0.2627,0.2576,0.2546,0.2503,0.2455,0.2412,0.2353,0.2302,0.2247,0.2192,0.217,0.2154,0.2158,0.2158,0.215,0.2147,0.2156,0.2171,0.2171,0.2171,0.2171,0.2171,0.2171,0.2828,0.2785,0.2755,0.2691,0.2654,0.2604,0.2577,0.2538,0.25,0.2437,0.2395,0.2359,0.2308,0.2249,0.2202,0.2186,0.2168,0.2175,0.2156,0.2153,0.2151,0.2148,0.2157,0.2172,0.2172,0.2162,0.2162,0.2162]}]]